TimeEDT,TemperatureF,Dew PointF,Humidity,Sea Level PressureIn,VisibilityMPH,Wind Direction,Wind SpeedMPH,Gust SpeedMPH,PrecipitationIn,Events,Conditions,WindDirDegrees,DateUTC
12:00 AM,51.8,42.8,71,30.21,9.0,ENE,3.5,-,N/A,,Clear,70,2013-05-03 04:00:00
1:00 AM,53.6,42.8,67,30.20,9.0,East,4.6,-,N/A,,Clear,80,2013-05-03 05:00:00
2:00 AM,53,37,44,,,Calm,Calm,,,,,100,2013-05-03 06:00:00
2:00 AM,51.8,42.8,71,30.20,9.0,East,5.8,-,N/A,,Mostly Cloudy,100,2013-05-03 06:00:00
3:00 AM,53.6,42.8,67,30.19,9.0,SE,6.9,-,N/A,,Partly Cloudy,130,2013-05-03 07:00:00
4:00 AM,53.6,41.0,62,30.19,9.0,Calm,Calm,-,N/A,,Clear,0,2013-05-03 08:00:00
5:00 AM,50.0,41.0,71,30.19,9.0,ENE,4.6,-,N/A,,Clear,60,2013-05-03 09:00:00
6:00 AM,46.4,39.2,76,30.20,9.0,ENE,3.5,-,N/A,,Clear,60,2013-05-03 10:00:00
7:00 AM,48.2,39.2,71,30.21,9.0,NE,4.6,-,N/A,,Clear,50,2013-05-03 11:00:00
8:00 AM,46.4,39.2,76,30.22,9.0,NNE,6.9,-,N/A,,Clear,20,2013-05-03 12:00:00
9:00 AM,57.2,42.8,59,30.22,9.0,NE,5.8,-,N/A,,Clear,50,2013-05-03 13:00:00
10:00 AM,64.4,41.0,42,30.22,9.0,South,6.9,-,N/A,,Clear,180,2013-05-03 14:00:00
11:00 AM,66.2,37.4,35,30.23,9.0,SSE,13.8,-,N/A,,Clear,160,2013-05-03 15:00:00
12:00 PM,68.0,37.4,33,30.22,9.0,South,13.8,-,N/A,,Clear,190,2013-05-03 16:00:00
1:00 PM,68.0,39.2,35,30.21,9.0,South,13.8,-,N/A,,Clear,180,2013-05-03 17:00:00
2:00 PM,78,36,12,30.19,,South,10.4,,,,,170,2013-05-03 18:00:00
2:00 PM,69.8,41.0,35,30.20,9.0,South,13.8,-,N/A,,Clear,180,2013-05-03 18:00:00
3:00 PM,71.6,42.8,35,30.19,9.0,South,12.7,-,N/A,,Clear,190,2013-05-03 19:00:00
4:00 PM,69.8,41.0,35,30.18,9.0,South,15.0,-,N/A,,Clear,190,2013-05-03 20:00:00
5:00 PM,71.6,41.0,33,30.18,9.0,South,11.5,-,N/A,,Clear,170,2013-05-03 21:00:00
6:00 PM,71.6,42.8,35,30.17,9.0,SSE,10.4,-,N/A,,Clear,150,2013-05-03 22:00:00
7:00 PM,73.4,44.6,36,30.17,9.0,SSE,8.1,-,N/A,,Clear,150,2013-05-03 23:00:00
8:00 PM,70,35,17,,,SSW,12.7,,,,,210,2013-05-04 00:00:00
8:00 PM,69.8,44.6,40,30.17,9.0,SSE,6.9,-,N/A,,Clear,150,2013-05-04 00:00:00
9:00 PM,57.2,44.6,63,30.17,9.0,NE,3.5,-,N/A,,Clear,40,2013-05-04 01:00:00
10:00 PM,57.2,42.8,59,30.18,9.0,Variable,2.3,-,N/A,,Clear,0,2013-05-04 02:00:00
11:00 PM,55.4,42.8,63,30.18,9.0,NNE,2.3,-,N/A,,Clear,30,2013-05-04 03:00:00